Weather History for Key West, FL

Change the Weather History Date:

Saturday, June 15, 2013

  Actual Average Record
Temperature  
Mean Temperature 84 °F 83 °F  
Max Temperature 89 °F 88 °F 95 °F (1880)
Min Temperature 79 °F 79 °F 69 °F (1930)
Degree Days  
Heating Degree Days 0 0  
Month to date heating degree days 0 0  
Since 1 June heating degree days 0 0  
Since 1 July heating degree days 28 73  
Cooling Degree Days 19 18  
Month to date cooling degree days 252 267  
Year to date cooling degree days 1881 1697  
Since 1 June cooling degree days 252 267  
Growing Degree Days 34 (Base 50)    
Moisture  
Dew Point 74 °F    
Average Humidity 72    
Maximum Humidity 85    
Minimum Humidity 59    
Precipitation  
Precipitation 0.00 in 0.14 in 3.57 in (1887)
Month to date precipitation 7.00 2.09  
Year to date precipitation 21.79 12.72  
Snow  
Snow 0.00 in - - ()
Month to date snowfall 0.0  
Since 1 June snowfall 0.0  
Since 1 July snowfall 0.0  
Snow Depth 0.00 in    
Sea Level Pressure  
Sea Level Pressure 30.02 in    
Wind  
Wind Speed 5 mph (NNW)    
Max Wind Speed 9 mph    
Max Gust Speed 13 mph    
Visibility 10 miles    
Events      
T = Trace of Precipitation, MM = Missing Value Source: NWS Daily Summary

Daily Weather History Graph

Daily Weather History Graph

Search for Another Location

Airport:

Trip Planner

Search our weather history database for the weather conditions in past years. The results will help you decide how hot, cold, wet, or windy it might be!

Date:

Astronomy

Jun. 15, 2013 Rise Set
Actual Time 6:38 AM EDT 8:17 PM EDT
Civil Twilight 6:12 AM EDT 8:42 PM EDT
Nautical Twilight 5:41 AM EDT 9:13 PM EDT
Astronomical Twilight 5:09 AM EDT 9:45 PM EDT
Moon 12:34 PM EDT (6/15) 12:25 AM EDT (6/15)
Length of Visible Light 14h 30m
Length of Day
13h 39m
Waxing Crescent, 39% of the Moon is Illuminated
Jun 15
Waxing Crescent
Jun 16
First Quarter
Jun 23
Full
Jun 30
Last Quarter
Jul 8
New

Hourly Weather History & Observations

Time (EDT) Temp. Heat Index Dew Point Humidity Pressure Visibility Wind Dir Wind Speed Gust Speed Precip Events Conditions
12:53 AM 82.9 °F 89.4 °F 73.9 °F 74% 29.98 in 10.0 mi SSW 9.2 mph - N/A   Partly Cloudy
1:53 AM 82.0 °F 87.9 °F 73.9 °F 76% 29.97 in 10.0 mi SW 5.8 mph - N/A   Scattered Clouds
2:53 AM 82.0 °F 87.9 °F 73.9 °F 76% 29.97 in 10.0 mi WNW 3.5 mph - N/A   Partly Cloudy
3:53 AM 81.0 °F 86.2 °F 73.9 °F 79% 29.96 in 10.0 mi West 3.5 mph - N/A   Clear
4:53 AM 80.1 °F 84.5 °F 73.9 °F 81% 29.96 in 10.0 mi West 3.5 mph - N/A   Clear
5:53 AM 80.1 °F 84.5 °F 73.9 °F 81% 29.97 in 10.0 mi Calm Calm - N/A   Clear
6:53 AM 79.0 °F - 73.9 °F 84% 29.99 in 10.0 mi NNW 3.5 mph - N/A   Clear
7:53 AM 82.0 °F 87.9 °F 73.9 °F 76% 30.01 in 10.0 mi North 5.8 mph - N/A   Scattered Clouds
8:53 AM 84.9 °F 92.1 °F 73.9 °F 69% 30.04 in 10.0 mi North 4.6 mph - N/A   Partly Cloudy
9:53 AM 84.9 °F 92.1 °F 73.9 °F 69% 30.05 in 10.0 mi NNE 4.6 mph - N/A   Scattered Clouds
10:16 AM 84.2 °F 90.9 °F 73.4 °F 70% 30.06 in 10.0 mi NNE 5.8 mph - N/A   Mostly Cloudy
10:42 AM 86.0 °F 95.1 °F 75.2 °F 70% 30.06 in 10.0 mi NNW 6.9 mph - N/A   Scattered Clouds
10:53 AM 87.1 °F 95.4 °F 73.9 °F 65% 30.06 in 10.0 mi North 5.8 mph - N/A   Mostly Cloudy
11:53 AM 87.1 °F 96.3 °F 75.0 °F 67% 30.05 in 10.0 mi NNW 6.9 mph - N/A   Scattered Clouds
12:53 PM 88.0 °F 96.5 °F 73.9 °F 63% 30.04 in 10.0 mi North 6.9 mph - N/A   Scattered Clouds
1:30 PM 86.0 °F 93.4 °F 73.4 °F 66% 30.03 in 10.0 mi Calm Calm - N/A   Mostly Cloudy
1:53 PM 84.9 °F 92.1 °F 73.9 °F 69% 30.03 in 10.0 mi South 4.6 mph - N/A   Overcast
2:53 PM 84.9 °F 92.1 °F 73.9 °F 69% 30.02 in 10.0 mi Variable 3.5 mph - N/A   Overcast
3:19 PM 84.2 °F 90.9 °F 73.4 °F 70% 30.02 in 10.0 mi SSW 3.5 mph - N/A   Mostly Cloudy
3:53 PM 84.9 °F 92.1 °F 73.9 °F 69% 30.01 in 10.0 mi Calm Calm - N/A   Overcast
4:53 PM 89.1 °F 98.0 °F 73.9 °F 61% 30.01 in 10.0 mi NNE 8.1 mph - N/A   Scattered Clouds
5:53 PM 87.1 °F 94.5 °F 73.0 °F 63% 30.01 in 10.0 mi NNW 4.6 mph - N/A   Clear
6:53 PM 87.1 °F 95.4 °F 73.9 °F 65% 30.01 in 10.0 mi NNW 6.9 mph - N/A   Partly Cloudy
7:53 PM 86.0 °F 93.8 °F 73.9 °F 67% 30.02 in 10.0 mi North 4.6 mph - N/A   Clear
8:53 PM 84.0 °F 90.2 °F 73.0 °F 69% 30.02 in 10.0 mi North 4.6 mph - N/A   Clear
9:53 PM 82.9 °F 89.4 °F 73.9 °F 74% 30.04 in 10.0 mi NE 3.5 mph - N/A   Clear
10:53 PM 82.9 °F 89.4 °F 73.9 °F 74% 30.05 in 10.0 mi East 3.5 mph - N/A   Clear
11:53 PM 82.9 °F 89.4 °F 73.9 °F 74% 30.06 in 10.0 mi ESE 4.6 mph - N/A   Mostly Cloudy